Current Version              Previous Version:    01  02  03  04  05  06  07  08  09  10  11  12  13  14  15  16  17  18  19  20  21  22  23  24  25  26  27  28  29  30  
   31  32  33  34  35  36  37  38  39  40  41  42  43  44  45  46  47  48  49  50  51  52  53  54  55  56  57  58  59  60  

[Printable]
859
ASUS44 KLUB 240201
RWRTX
WEST TEXAS WEATHER ROUNDUP
NATIONAL WEATHER SERVICE LUBBOCK TX
900 PM CDT WED APR 23 2014

NOTE: "FAIR" INDICATES FEW OR NO CLOUDS BELOW 12,000 FEET WITH NO
SIGNIFICANT WEATHER AND/OR OBSTRUCTIONS TO VISIBILITY.

TXZ004-006>008-010-012-014-016-OKZ002-240300-
TEXAS PANHANDLE/OKLAHOMA PANHANDLE

CITY           SKY/WX    TMP DP  RH WIND       PRES   REMARKS
AMARILLO       CLEAR     76  13   9 S13       29.59R
BORGER         CLEAR     82  14   8 S13       29.54R
DALHART        CLEAR     74  18  12 W12       29.59R HAZE
GUYMON         CLEAR     74  24  15 SW10      29.50R
$$

TXZ026-029-035-045-048-240300-
SOUTHERN PANHANDLE/SOUTH PLAINS/ROLLING PLAINS

CITY           SKY/WX    TMP DP  RH WIND       PRES   REMARKS
CHILDRESS      PTCLDY    70  58  65 SE16      29.59R
SEMINOLE       MOCLDY    77  22  13 SW9       29.70R
LUBBOCK        PTCLDY    80  22  11 SW14      29.64R
SNYDER         MOCLDY    81  45  28 S14       29.66R
$$

TXZ052-054-060>062-072-078-127-140-154-169-240300-
PERMIAN BASIN/CONCHO VALLEY/BIG COUNTRY/EDWARDS PLATEAU

CITY           SKY/WX    TMP DP  RH WIND       PRES   REMARKS
ABILENE        MOCLDY    83  56  39 S21G35    29.63R
BROWNWOOD      MOCLDY    81  59  47 SE16G24   29.69R
JUNCTION       CLOUDY    80  59  48 SE10      29.72S
MIDLAND        MOCLDY    82  53  36 S15G26    29.68R
ODESSA           N/A    N/A N/A N/A MISG      29.68R
SAN ANGELO     PTCLDY    83  55  38 S15G25    29.66R
WINK           MOCLDY    80  24  12 W8        29.66R
$$

TXZ055-058-074-075-080-082-240300-
FAR WEST/SOUTHWEST MOUNTAINS/TRANS PECOS

CITY           SKY/WX    TMP DP  RH WIND       PRES   REMARKS
DRYDEN           N/A     82  57  42 SE16      29.70R
EL PASO        PTCLDY    80  18  10 W23       29.77R
FORT STOCKTON  CLOUDY    79  26  14 NE6       29.71R
GUADALUPE PASS CLEAR     71  16  12 W40G48    29.82S
MARFA          MOCLDY    70  16  12 W9        29.86S
PECOS          MOCLDY    77  36  22 W9        29.66R
PRESIDIO       FAIR      86  17   7 S6        29.71R
$$

TXZ014-016-019-021>030-083-240300
TEXAS TECH WEST TEXAS MESONET/TEXAS PANHANDLE/NORTHERN SOUTH PLAINS

CITY           SKY/WX    TMP DP  RH WIND       PRES   REMARKS
AMARILLO 9NNE    N/A     79  18  10 SW10      29.56R
AMARILLO 7SSE    N/A     76  16  10 SW13      29.60R
BOOTLEG 11WNW    N/A     71  15  11 SW13      29.66R
CANADIAN 6E      N/A     67  54  61 SE22      29.57R
CAPROCK CYN SP   N/A     81  26  13 S10       29.59R
CHILDRESS 2NNE   N/A     71  58  63 SE16      29.57R
CLARENDON 2WSW   N/A     68  56  66 SE12      29.59S
CLAUDE 12SW      N/A     81  17   9 SW14      29.60R
FLOYDADA 2NNE    N/A     78  24  13 S15       29.62R
MCLEAN 1E        N/A     64  58  81 E13       29.61R
MULESHOE 2SSW    N/A     76  15  10 S16       29.64R
OLTON 6S         N/A     77  16  10 SW16      29.63R
PALO DURO SP     N/A     80  19  10 S16       29.60R
SILVERTON 7ESE   N/A     76  28  16 S12       29.61R
TULIA 2ENE       N/A     78  20  11 SW17      29.61R
UMBARGER 3NNE    N/A     77  18  10 SW20      29.61R
$$

TXZ033>036-039>041-045>048-240300
TEXAS TECH WEST TEXAS MESONET/SOUTH PLAINS

CITY           SKY/WX    TMP DP  RH WIND       PRES   REMARKS
AIKEN 3WSW       N/A     77  29  17 S13       29.63R
DENVR CTY 7WNW   N/A     74  18  12 SW12      29.70R
ODONNELL 1N      N/A     77  27  15 S8        29.66R
RALLS 1SE        N/A     77  26  15 S14       29.64R
SEAGRAVES 1SW    N/A     78  19  11 SW14      29.68R
SUNDOWN 8SW      N/A     78  14   9 SW17      29.67R
$$

TXZ031-032-036>038-042>044-240300-
TEXAS TECH WEST TEXAS MESONET/ROLLING PLAINS

CITY           SKY/WX    TMP DP  RH WIND       PRES   REMARKS
GRAHAM 5SSW      N/A     81  26  13 S10       29.64S
GUTHRIE 10WSW    N/A     73  55  52 E14       29.58R
LK A HENRY 1NW   N/A     84  36  18 SW8       29.60S
NORTHFIELD 1S    N/A     73  58  60 SE14      29.57R
ODELL 4ENE       N/A     73  60  64 SE18      29.60R
PADUCAH 10SW     N/A     74  55  51 SE13      29.59R
POST 1NE         N/A     82  27  13 SW7       29.62R
WEINERT 2NNE     N/A     72  61  67 E9        29.60S
WHITE RVR 6NE    N/A     80  30  16 SW10      29.62R
$$

TXZ052-054-060>062-072-078-127-140-154-169-240300-
TEXAS TECH WEST TEXAS MESONET/PERMIAN BASIN/
CONCHO VALLEY/BIG COUNTRY/EDWARDS PLATEAU

CITY           SKY/WX    TMP DP  RH WIND       PRES   REMARKS
COYANOSA 2N      N/A     82  30  15 W2        29.67R
JUNCTION 1SSW    N/A     80  59  48 SE7       29.72S
MERTZON 3NNE     N/A     81  56  42 S13       29.69R
STRLNG CT 4WSW   N/A     82  54  37 S15       29.68R
SWEETWATR 11SW   N/A     83  47  27 S12       29.66R
$$

TXZ055-058-074-075-080-082-240300-
TEXAS TECH WEST TEXAS MESONET/FAR WEST/SOUTHWEST MOUNTAINS/TRANS PECOS

CITY           SKY/WX    TMP DP  RH WIND       PRES   REMARKS
PRSMN GAP BBNP   N/A     87  19   8 W5        29.70S
$$